Regional Weather Roundup
Issued by NWS

Home | Current Version | Previous Version | Text Only | Print | Product List | Glossary On
Versions: 1 2 3 4 5 6 7 8 9 10 11 12 13 14 15 16 17 18 19 20 21 22 23 24 25 26 27 28 29 30 31 32 33 34 35 36 37 38 39 40 41 42 43 44 45 46 47 48 49 50
000
ASUS43 KIND 260609
RWRIN

WEATHER ROUNDUP FOR INDIANA
NATIONAL WEATHER SERVICE INDIANAPOLIS IN
200 AM EDT SUN APR 26 2015

NOTE: "FAIR" INDICATES FEW OR NO CLOUDS BELOW 12,000 FEET WITH NO
SIGNIFICANT WEATHER AND/OR OBSTRUCTIONS TO VISIBILITY.

* - STATION DOES NOT REPORT WEATHER SUCH AS PRECIPITATION OR FOG.

+ - STATION NOT QUALITY CONTROLLED BY THE NATIONAL WEATHER SERVICE.
    USE DATA WITH CAUTION...ESPECIALLY DEWPOINT AND RELATIVE
    HUMIDITY OBSERVATIONS.

INZ001>003-010>013-019-020-260700-
NORTHWEST INDIANA

CITY           SKY/WX    TMP DP  RH WIND       PRES   REMARKS
GARY /AIRPORT/ CLEAR     38  32  78 CALM      29.86R
KNOX *+        PTCLDY    37  30  75 NE3       29.82S
LA PORTE +     PTCLDY    36  36 100 N5        29.84R
6HR MIN TEMP:  36; 6HR MAX TEMP:  47;

MICHIGAN CITY+ CLEAR     34  34 100 CALM      29.85S
MONTICELLO +   CLOUDY    42  35  78 NE7       29.81R
6HR MIN TEMP:  42; 6HR MAX TEMP:  46;

VALPARAISO     CLEAR     39  35  86 CALM      29.84R
6HR MIN TEMP:  39; 6HR MAX TEMP:  45; 6HR PCP: TRACE;


$$

LMZ046-743>745-260700-
SOUTHERN LAKE MICHIGAN

STATION/POSITION TIME  TEMP    WIND        PRES    WAVE
                       AIR SEA DIR/SP/G            HT
                 (UTC) (F)     (DEG/KT/KT) (MB)    (FT)
BURNS HARBOR     0600   40      20/  6/  9 1011.2S
MICHIGAN CITY    0600   41      10/  7/  8   N/A
5NW MICH CITY    0600   39 45   40/  6/  8   N/A     2

$$

INZ004-005-014>016-021>024-260700-
NORTH CENTRAL INDIANA

CITY           SKY/WX    TMP DP  RH WIND       PRES   REMARKS
GOSHEN         CLEAR     37  31  78 N7        29.83R
6HR MIN TEMP:  35; 6HR MAX TEMP:  44; 6HR PCP: TRACE;

LOGANSPORT +   CLOUDY    41  32  70 N7        29.81S
PERU/GRISSOM   CLOUDY    42  34  74 NE10      29.79S
6HR MIN TEMP:  42; 6HR MAX TEMP:  45;

ROCHESTER +    PTCLDY    43  36  75 NE5       29.83R
SOUTH BEND     CLEAR     42  33  70 NE7       29.84S
6HR MIN TEMP:  38; 6HR MAX TEMP:  48;

WARSAW +       PTCLDY    37  34  87 NE3       29.83R

$$

INZ006>009-017-018-025>027-260700-
NORTHEAST INDIANA

CITY           SKY/WX    TMP DP  RH WIND       PRES   REMARKS
ANGOLA *+      CLEAR     36  30  80 NE3       29.83R
AUBURN +       PTCLDY    37  30  75 N5        29.83S
FORT WAYNE     CLOUDY    40  32  73 N9        29.81S
6HR MIN TEMP:  40; 6HR MAX TEMP:  42; 6HR PCP:  0.01;

HUNTINGTON +   MOCLDY    40  32  71 NE7       29.80S
6HR MIN TEMP:  40; 6HR MAX TEMP:  42;


$$

INZ028-029-035-036-043>045-051>053-260700-
WEST CENTRAL INDIANA

CITY           SKY/WX    TMP DP  RH WIND       PRES   REMARKS
CRAWFORDSVL +  CLOUDY    41  32  70 NE10      29.77S
6HR MIN TEMP:  41; 6HR MAX TEMP:  44;

GREENCASTLE +  CLOUDY    43  36  75 NE13      29.77R
LAFAYETTE      CLOUDY    43  33  68 NE9       29.80R
6HR MIN TEMP:  43; 6HR MAX TEMP:  46;

TERRE HAUTE    CLOUDY    46  40  79 NE12      29.75R
6HR MIN TEMP:  46; 6HR MAX TEMP:  48; 6HR PCP:  0.03;


$$

INZ030>032-037>040-046>048-054>057-064-065-260700-
CENTRAL INDIANA

CITY           SKY/WX    TMP DP  RH WIND       PRES   REMARKS
CP ATTERBURY + CLOUDY    45  37  76 NE10      29.75R
FISHERS *+     CLOUDY    41  34  75 NE6       29.77R
FRANKFORT +    MOCLDY    43  31  62 NE14G20   29.80R
6HR MIN TEMP:  43; 6HR MAX TEMP:  46;

INDIANAPOLIS   CLOUDY    44  33  65 NE10      29.74R
6HR MIN TEMP:  44; 6HR MAX TEMP:  47; 6HR PCP: TRACE;

-EAGLE CREEK   CLOUDY    44  33  65 NE8       29.76R
6HR MIN TEMP:  44; 6HR MAX TEMP:  46;

KOKOMO *+      MOCLDY    41  34  75 NE12      29.79S
6HR MIN TEMP:  41; 6HR MAX TEMP:  45;

MARION +       CLOUDY    41  29  63 NE12      29.79S
MT COMFORT *+  CLOUDY    43  27  52 NE10      29.76S
SHELBYVILLE    CLOUDY    46  36  68 NE13G21   29.74R
6HR MIN TEMP:  45; 6HR MAX TEMP:  48;

ZIONSVILLE +   CLOUDY    43  30  60 E7        29.78R
6HR MIN TEMP:  43; 6HR MAX TEMP:  46;


$$

INZ033-034-041-042-049-050-058-059-260700-
EAST CENTRAL INDIANA

CITY           SKY/WX    TMP DP  RH WIND       PRES   REMARKS
MUNCIE         CLOUDY    42  31  64 NE15      29.76F
6HR MIN TEMP:  41; 6HR MAX TEMP:  46;


$$

INZ060-061-067>069-081>083-085>088-260700-
SOUTHWEST INDIANA

CITY           SKY/WX    TMP DP  RH WIND       PRES   REMARKS
EVANSVILLE     CLOUDY    50  46  86 NE15      29.69R
6HR MIN TEMP:  50; 6HR MAX TEMP:  60; 6HR PCP: TRACE;

HUNTINGBURG *+ CLOUDY    46  43  87 NE13      29.69S
6HR MIN TEMP:  46; 6HR MAX TEMP:  54; 6HR PCP:  0.01;

WASHINGTON +   CLOUDY    47  42  85 NE12G18   29.71S
6HR MIN TEMP:  47; 6HR MAX TEMP:  52;


$$

INZ062-063-066-070>080-084-089>092-260700-
SOUTH CENTRAL AND SOUTHEAST INDIANA

CITY           SKY/WX    TMP DP  RH WIND       PRES   REMARKS
BEDFORD +      CLOUDY    45  41  87 NE7       29.72R
BLOOMINGTON    CLOUDY    46  41  82 NE9       29.73R
6HR MIN TEMP:  46; 6HR MAX TEMP:  47; 6HR PCP:  0.03;

MADISON *+     CLOUDY    45  41  87 NE9G17    29.71S
NORTH VERNON + CLOUDY    46  46 100 N7        29.72R

$$




USA.gov is the U.S. government's official web portal to all federal, state and local government web resources and services.